Venice, FL

7:15 PM EST on February 14, 2016 (GMT -0500)
Venice Municipal

Weather History for KVNC - July, 2013

Change the Weather History Date:

Friday, July 19, 2013

  Actual Average (KSRQ) Record (KSRQ)
Temperature  
Mean Temperature 78 °F 82 °F  
Max Temperature 86 °F 90 °F 96 °F (1976)
Min Temperature 71 °F 75 °F 64 °F (1923)
Degree Days  
Heating Degree Days 0 0  
Month to date heating degree days 0  
Since 1 June heating degree days 0  
Since 1 July heating degree days 0  
Cooling Degree Days 14 18  
Month to date cooling degree days 326  
Year to date cooling degree days 1549  
Since 1 June cooling degree days 798  
Growing Degree Days 28 (Base 50)    
Moisture  
Dew Point 73 °F    
Average Humidity 86    
Maximum Humidity 100    
Minimum Humidity 70    
Precipitation  
Precipitation 0.00 in 0.24 in 4.09 in (1957)
Month to date precipitation 4.90  
Year to date precipitation 26.11  
Sea Level Pressure  
Sea Level Pressure 30.10 in    
Wind  
Wind Speed 7 mph (ESE)    
Max Wind Speed 16 mph    
Max Gust Speed 22 mph    
Visibility 10 miles    
Events Rain , Thunderstorm    
T = Trace of Precipitation, MM = Missing Value Source: NWS Daily Summary

Daily Weather History Graph

Daily Weather History Graph

Search for Another Location

Airport or City:

Trip Planner

Search our weather history database for the weather conditions in past years. The results will help you decide how hot, cold, wet, or windy it might be!

Date:

Astronomy

Jul. 19, 2013 Rise Set
Actual Time 6:47 AM EDT 8:24 PM EDT
Civil Twilight 6:21 AM EDT 8:50 PM EDT
Nautical Twilight 5:50 AM EDT 9:21 PM EDT
Astronomical Twilight 5:18 AM EDT 9:53 PM EDT
Moon 5:26 PM EDT (7/19) 3:25 AM EDT (7/19)
Length of Visible Light 14h 28m
Length of Day
13h 37m
Waxing Gibbous, 86% of the Moon is Illuminated
Jul 19
Waxing Gibbous
Jul 22
Full
Jul 29
Last Quarter
Aug 6
New
Aug 14
First Quarter

Hourly Weather History & Observations

Time (EDT) Temp. Heat Index Dew Point Humidity Pressure Visibility Wind Dir Wind Speed Gust Speed Precip Events Conditions
12:15 AM 73.4 °F - 71.6 °F 94% 30.11 in 10.0 mi ESE 4.6 mph - N/A   Partly Cloudy
12:35 AM 73.4 °F - 71.6 °F 94% 30.11 in 10.0 mi East 4.6 mph - N/A   Clear
12:55 AM 73.4 °F - 71.6 °F 94% 30.11 in 10.0 mi East 5.8 mph - N/A   Clear
1:15 AM 73.4 °F - 71.6 °F 94% 30.12 in 10.0 mi East 6.9 mph - N/A   Clear
1:35 AM 73.4 °F - 71.6 °F 94% 30.11 in 10.0 mi East 5.8 mph - N/A   Partly Cloudy
1:55 AM 73.4 °F - 71.6 °F 94% 30.10 in 10.0 mi East 4.6 mph - N/A   Clear
2:15 AM 71.6 °F - 71.6 °F 100% 30.09 in 10.0 mi East 5.8 mph - N/A   Clear
2:35 AM 71.6 °F - 71.6 °F 100% 30.10 in 10.0 mi ESE 4.6 mph - N/A   Clear
2:55 AM 71.6 °F - 71.6 °F 100% 30.10 in 10.0 mi East 5.8 mph - N/A   Mostly Cloudy
3:15 AM 71.6 °F - 71.6 °F 100% 30.10 in 10.0 mi East 6.9 mph - N/A   Mostly Cloudy
3:35 AM 71.6 °F - 71.6 °F 100% 30.10 in 10.0 mi East 6.9 mph - N/A   Overcast
3:55 AM 71.6 °F - 71.6 °F 100% 30.10 in 10.0 mi East 6.9 mph - N/A   Overcast
4:15 AM 71.6 °F - 71.6 °F 100% 30.09 in 10.0 mi East 4.6 mph - N/A   Overcast
4:35 AM 73.4 °F - 71.6 °F 94% 30.09 in 10.0 mi East 4.6 mph - N/A   Mostly Cloudy
4:55 AM 73.4 °F - 71.6 °F 94% 30.09 in 10.0 mi East 5.8 mph - N/A   Partly Cloudy
5:15 AM 71.6 °F - 71.6 °F 100% 30.09 in 10.0 mi East 5.8 mph - N/A   Clear
5:35 AM 71.6 °F - 71.6 °F 100% 30.09 in 10.0 mi East 6.9 mph - N/A   Clear
5:55 AM 73.4 °F - 71.6 °F 94% 30.09 in 10.0 mi East 8.1 mph - N/A   Mostly Cloudy
6:15 AM 73.4 °F - 71.6 °F 94% 30.09 in 10.0 mi East 8.1 mph - N/A   Overcast
6:35 AM 73.4 °F - 69.8 °F 88% 30.08 in 10.0 mi East 6.9 mph - N/A   Overcast
6:55 AM 73.4 °F - 69.8 °F 88% 30.09 in 10.0 mi East 5.8 mph - N/A   Scattered Clouds
7:15 AM 73.4 °F - 69.8 °F 88% 30.10 in 10.0 mi East 6.9 mph - N/A   Scattered Clouds
7:35 AM 73.4 °F - 69.8 °F 88% 30.10 in 10.0 mi ESE 6.9 mph - N/A   Mostly Cloudy
7:55 AM 73.4 °F - 69.8 °F 88% 30.11 in 10.0 mi ESE 8.1 mph - N/A   Scattered Clouds
8:15 AM 75.2 °F - 69.8 °F 83% 30.12 in 10.0 mi East 8.1 mph - N/A   Partly Cloudy
8:35 AM 75.2 °F - 71.6 °F 89% 30.12 in 10.0 mi ESE 8.1 mph - N/A   Clear
8:55 AM 75.2 °F - 71.6 °F 89% 30.12 in 10.0 mi ESE 5.8 mph - N/A   Clear
9:15 AM 77.0 °F - 71.6 °F 83% 30.12 in 10.0 mi ESE 9.2 mph - N/A   Clear
9:35 AM 77.0 °F - 73.4 °F 89% 30.13 in 10.0 mi ESE 11.5 mph - N/A   Clear
9:55 AM 78.8 °F - 73.4 °F 83% 30.13 in 10.0 mi ESE 8.1 mph - N/A   Clear
10:15 AM 78.8 °F - 73.4 °F 83% 30.13 in 10.0 mi ESE 10.4 mph - N/A   Clear
10:35 AM 80.6 °F 85.4 °F 73.4 °F 79% 30.13 in 10.0 mi ESE 10.4 mph - N/A   Partly Cloudy
10:55 AM 80.6 °F 86.2 °F 75.2 °F 84% 30.13 in 10.0 mi ESE 11.5 mph - N/A   Clear
11:15 AM 82.4 °F 89.5 °F 75.2 °F 79% 30.13 in 10.0 mi ESE 9.2 mph - N/A   Clear
11:35 AM 84.2 °F 92.3 °F 75.2 °F 74% 30.13 in 10.0 mi East 9.2 mph - N/A   Clear
11:55 AM 84.2 °F 92.3 °F 75.2 °F 74% 30.13 in 10.0 mi SE 9.2 mph - N/A   Clear
12:15 PM 86.0 °F 95.1 °F 75.2 °F 70% 30.12 in 10.0 mi SSE 6.9 mph - N/A   Partly Cloudy
12:35 PM 86.0 °F 95.1 °F 75.2 °F 70% 30.12 in 10.0 mi South 9.2 mph - N/A   Mostly Cloudy
12:55 PM 86.0 °F 96.9 °F 77.0 °F 74% 30.11 in 10.0 mi SSW 10.4 mph - N/A   Mostly Cloudy
1:15 PM 86.0 °F 95.1 °F 75.2 °F 70% 30.11 in 10.0 mi South 11.5 mph - N/A   Partly Cloudy
1:35 PM 84.2 °F 92.3 °F 75.2 °F 74% 30.11 in 10.0 mi South 11.5 mph - N/A   Clear
1:55 PM 84.2 °F 92.3 °F 75.2 °F 74% 30.10 in 10.0 mi South 10.4 mph - N/A   Clear
2:15 PM 86.0 °F 96.9 °F 77.0 °F 74% 30.09 in 9.0 mi South 11.5 mph 16.1 mph N/A Thunderstorm Clear
2:35 PM 86.0 °F 96.9 °F 77.0 °F 74% 30.08 in 10.0 mi South 12.7 mph - N/A   Clear
2:55 PM 86.0 °F 96.9 °F 77.0 °F 74% 30.08 in 10.0 mi SSW 13.8 mph - N/A Thunderstorm Clear
3:15 PM 84.2 °F 92.3 °F 75.2 °F 74% 30.08 in 10.0 mi SSW 12.7 mph 17.3 mph N/A   Clear
3:35 PM 84.2 °F 92.3 °F 75.2 °F 74% 30.08 in 10.0 mi SSW 12.7 mph 19.6 mph N/A Thunderstorm Clear
3:55 PM 84.2 °F 92.3 °F 75.2 °F 74% 30.08 in 10.0 mi SSW 15.0 mph - N/A Thunderstorm Clear
4:15 PM 84.2 °F 94.1 °F 77.0 °F 79% 30.07 in 10.0 mi SW 13.8 mph - N/A Thunderstorm Clear
4:35 PM 84.2 °F 92.3 °F 75.2 °F 74% 30.08 in 10.0 mi SW 12.7 mph - N/A Thunderstorm Clear
4:55 PM 84.2 °F 94.1 °F 77.0 °F 79% 30.08 in 10.0 mi WSW 10.4 mph - N/A Thunderstorm Partly Cloudy
5:15 PM 84.2 °F 94.1 °F 77.0 °F 79% 30.07 in 10.0 mi WSW 12.7 mph - N/A Thunderstorm Partly Cloudy
5:35 PM 84.2 °F 94.1 °F 77.0 °F 79% 30.07 in 10.0 mi WSW 10.4 mph - N/A Thunderstorm Clear
5:55 PM 80.6 °F 85.4 °F 73.4 °F 79% 30.06 in 10.0 mi WNW 16.1 mph 21.9 mph N/A Thunderstorm Mostly Cloudy
6:15 PM 80.6 °F 85.4 °F 73.4 °F 79% 30.07 in 10.0 mi WNW 15.0 mph 19.6 mph N/A Thunderstorm Mostly Cloudy
6:35 PM 78.8 °F - 73.4 °F 83% 30.07 in 9.0 mi WNW 10.4 mph - N/A Rain Light Rain
6:55 PM 80.6 °F 85.4 °F 73.4 °F 79% 30.06 in 10.0 mi WNW 6.9 mph - N/A Thunderstorm Clear
7:15 PM 80.6 °F 85.4 °F 73.4 °F 79% 30.06 in 10.0 mi NNW 4.6 mph - N/A   Clear
7:35 PM 80.6 °F 85.4 °F 73.4 °F 79% 30.08 in 10.0 mi NE 10.4 mph - N/A   Clear
7:55 PM 78.8 °F - 73.4 °F 83% 30.09 in 10.0 mi ENE 11.5 mph 18.4 mph N/A Thunderstorm Mostly Cloudy
8:15 PM 77.0 °F - 73.4 °F 89% 30.08 in 10.0 mi ENE 9.2 mph - N/A   Scattered Clouds
8:35 PM 77.0 °F - 73.4 °F 89% 30.08 in 10.0 mi NE 5.8 mph - N/A   Clear
8:55 PM 77.0 °F - 73.4 °F 89% 30.08 in 10.0 mi NNE 4.6 mph - N/A   Clear
9:15 PM 77.0 °F - 73.4 °F 89% 30.09 in 10.0 mi NE 4.6 mph - N/A   Clear
9:35 PM 77.0 °F - 73.4 °F 89% 30.10 in 10.0 mi NE 6.9 mph - N/A   Clear
9:55 PM 77.0 °F - 73.4 °F 89% 30.11 in 10.0 mi ENE 6.9 mph - N/A   Clear
10:15 PM 77.0 °F - 73.4 °F 89% 30.12 in 10.0 mi ENE 6.9 mph - N/A   Mostly Cloudy
10:35 PM 77.0 °F - 73.4 °F 89% 30.12 in 10.0 mi East 5.8 mph - N/A   Scattered Clouds
10:55 PM 75.2 °F - 71.6 °F 89% 30.13 in 10.0 mi East 5.8 mph - N/A   Scattered Clouds
11:15 PM 75.2 °F - 71.6 °F 89% 30.13 in 10.0 mi ESE 5.8 mph - N/A   Partly Cloudy
11:35 PM 75.2 °F - 73.4 °F 94% 30.13 in 10.0 mi East 6.9 mph - N/A   Partly Cloudy
11:55 PM 75.2 °F - 73.4 °F 94% 30.13 in 10.0 mi East 9.2 mph - N/A   Partly Cloudy